Location: Auckland
(36.8670°S, 174.7670°E)
Time: 08:20:01
(UTC+12:00)

Hubble Space Telescope - Pass Details

Date: 05 July 2019
Orbit: 536 x 540 km, 28.5° (Epoch: 22 July)

Event Time Altitude Azimuth Distance (km) Brightness Sun altitude
Exits shadow 06:49:37 - 292° (WNW) 2,348 3.6 -8.9°
Reaches altitude 10° 06:51:13 10° 301° (WNW) 1,795 3.1 -8.6°
Maximum altitude 06:54:39 25° 357° (N) 1,108 2.6 -8.0°
Drops below altitude 10° 06:58:05 10° 53° (NE) 1,793 5.0 -7.4°
Sets 07:00:38 0° 66° (ENE) 2,683 7.1 -6.9°
